Regional Weather Roundup
Issued by NWS Charleston, SC

Current Version | Previous Version | Text Only | Print | Product List | Glossary On
Versions: 1 2 3 4 5 6 7 8 9 10 11 12 13 14 15 16 17 18 19 20 21 22 23 24 25 26 27 28 29 30 31 32 33 34 35 36 37 38 39 40 41 42 43 44 45 46 47 48 49 50
000
ASUS42 KCHS 260512
RWRCHS

REGIONAL WEATHER ROUNDUP
NATIONAL WEATHER SERVICE CHARLESTON SC
100 AM EDT SUN APR 26 2015

NOTE: "FAIR" INDICATES FEW OR NO CLOUDS BELOW 12,000 FEET WITH NO
SIGNIFICANT WEATHER AND/OR OBSTRUCTIONS TO VISIBILITY.

NOT ALL STATIONS ARE QUALITY CONTROLLED BY THE NATIONAL
WEATHER SERVICE. USE DATA WITH CAUTION...ESPECIALLY
DEWPOINT OBSERVATIONS.

SCZ027-030-031-034>040-042>050-260600-
...SOUTHEAST SOUTH CAROLINA...

CITY           SKY/WX    TMP DP  RH WIND       PRES   REMARKS
N CHARLESTON   LGT RAIN  67  64  90 SW9       29.65S
WATERFRONT PRK   N/A     70 N/A N/A SW8         N/A
MOUNT PLEASANT LGT RAIN  68  64  88 MISG      29.66R
PINOPOLIS      NOT AVBL
MONCKS CORNER  FAIR      70  63  78 SW13G21   29.62F
SUMMERVILLE    LGT RAIN  66  66 100 S7        29.64F
BEAUFORT MCAS  MOCLDY    66  64  93 SW3       29.67F
BEAUFORT ARPT  FAIR      64  64 100 CALM      29.67S
HILTON HEAD IS MOCLDY    66  66 100 SW5       29.69R
WALTERBORO     CLOUDY    64  63  94 S9        29.65F
ALLENDALE      MOCLDY    66  66 100 CALM      29.64F

...SOUTHERN MIDLANDS AND PEE DEE...

CITY           SKY/WX    TMP DP  RH WIND       PRES   REMARKS
GEORGETOWN     NOT AVBL
KINGSTREE      NOT AVBL
ORANGEBURG     CLOUDY    68  64  87 SW7       29.62F
BARNWELL       FAIR      66  66 100 SW7       29.64F
AIKEN          FAIR      66  63  88 SW15      29.65F
MANNING        FAIR      68  54  60 SW12G17   29.61F
COLUMBIA       CLOUDY    71  65  81 SW12      29.59F
SUMTER         CLOUDY    70  67  91 SW14      29.57
FLORENCE       CLOUDY    66  64  93 CALM      29.59F
MYRTLE BEACH   CLOUDY    72  64  78 SW10      29.62S
N MYRTLE BEACH CLOUDY    69  67  93 W3        29.59F

$$

GAZ063-065-086>088-099>101-113>116-118-119-134>141-150-260600-
...SOUTHEAST GEORGIA...

CITY           SKY/WX    TMP DP  RH WIND       PRES   REMARKS
SAVANNAH ARPT  PTCLDY    65  64  97 SW7       29.69R
HUNTER AAF     MOCLDY    66  66 100 S7        29.67
FORT STEWART   PTCLDY    67  65  93 SW8       29.67
STATESBORO       N/A     65  65 100 CALM      29.67S
SYLVANIA       PTCLDY    64  64 100 SW3       29.67F
CLAXTON          N/A     66  64  94 W3        29.68F

...CSRA...CENTRAL AND FAR SOUTHEAST GEORGIA...

CITY           SKY/WX    TMP DP  RH WIND       PRES   REMARKS
THOMSON        CLEAR     69  68  98 CALM      29.66F
AUGUSTA-BUSH   CLEAR     66  64  93 S8        29.62F
AUGUSTA-DANIEL PTCLDY    68  65  90 SW8       29.63F
SWAINSBORO     NOT AVBL
VIDALIA        CLEAR     64  64 100 SW7       29.69S
EASTMAN        FAIR      66  66 100 SW5       29.69R
HAZLEHURST     FAIR      69  69  99 SW5       29.69S
ALMA           CLEAR     66  65  96 S5        29.71F
WAYCROSS       CLEAR     70  70 100 CALM      29.70F FOG
JESUP          FAIR      70  68  94 SW3       29.71F
BAXLEY         FAIR      68  66  94 SW3       29.70S
BRUNSWICK      PTCLDY    70  66  88 CALM      29.72F
SAINT SIMONS   MOCLDY    68  67  96 S3        29.71F

$$

SCZ027-028-034-036>038-045-046-048>050-GAZ119-141-260600-
...LAKE AND SUPPLEMENTAL COASTAL OBSERVATIONS...

STATION/POSITION TIME  TEMP    WIND        PRES    WAVE   SWELL
                       AIR SEA DIR/SP/G            HT/PER HT/PER/DIR
                 (UTC) (F)     (DEG/KT/KT) (MB)    (FT/S) (FT/S/D)
UPR LAKE MARION  NOT AVBL
WINYAH BAY       NOT AVBL
LAKE MURRAY      0400   70     210/  9/ 11 1002.0F
ACE BASIN NERRS  NOT AVBL
FORT PULASKI     0412   67 70  150/  2/  3 1005.3F
SAPELO ISLAND    0400   69     180/  6     1006.0F

$$

ANZ835-935-AMZ111-154-330-350-352-354-370-450-454-472-260600-
...C-MAN AND BUOY OBSERVATIONS...

STATION/POSITION TIME  TEMP    WIND        PRES    WAVE   SWELL
                       AIR SEA DIR/SP/G            HT/PER HT/PER/DIR
                 (UTC) (F)     (DEG/KT/KT) (MB)    (FT/S) (FT/S/D)
BUOY 41004       0450   71 71  210/ 17/ 21 1002.8F   5/ 6   2/ 9
BUOY 41008       0450   69 69  170/  6/  8 1006.2F   3/ 4   2/150/ 5
FOLLY BEACH CMAN 0400   68     240/ 10/ 13 1004.6R
CAPERS NEARSHORE 0408   70     220/ 17/ 23 1004.0R
FRIPP NEARSHORE  0400   69     230/ 16/ 19 1004.5F


STATION/POSITION TIME  TEMP    WIND        PRES    WAVE   SWELL
                       AIR SEA DIR/SP/G            HT/PER HT/PER/DIR
                 (UTC) (F)     (DEG/KT/KT) (MB)    (FT/S) (FT/S/D)
5E ST. MARYS GA  0421      70                N/A     2/12   2/ 90/12
FRYING PAN BUOY  0450   74 71  220/ 21/ 29 1001.9F   7/ 6   2/200/13
BUOY 41025       0450   66 76  330/ 10/ 14 1000.1F   5/ 7   5/200/ 7
CAPE LOOKOUT NC  0400   66     260/ 12/ 15 1001.1F
BUOY 41002       0450   73 71  230/ 23/ 27 1004.3F   7/ 6   2/250/11
BUOY 41010       0420   80 79  220/ 21/ 25 1008.9F
ST AUGUSTINE FL  0500   75 68  230/  8/ 11 1007.6F


$$



USA.gov is the U.S. government's official web portal to all federal, state and local government web resources and services.